Probability
0 0 0 0 0 0 0 0 0 0 0 0 0 0 0 0 0 0 0 39 65 71 68 74 87 90 84 94 90 90 94 90 90 94 97 97 100 100 100 90 90 90 81
0 0 0 0 0 0 0 0 0 0 0 0 0 0 0 0 0 0 0 16 45 52 71 84 81 87 87 84 90 90 94 94 94 94 97 100 100 100 94 90 87 87 81
0 0 0 0 0 0 0 0 0 0 0 0 0 0 0 0 0 0 0 0 6 29 52 74 87 90 87 81 84 87 94 94 94 97 97 100 100 100 94 90 90 87 81
0 0 0 0 0 0 0 0 0 0 0 0 0 0 0 0 0 0 0 0 6 6 23 61 84 87 87 87 81 84 87 94 94 94 97 97 100 100 94 94 90 84 77
0 0 0 0 0 0 0 0 0 0 0 0 0 0 0 0 0 0 0 0 0 3 10 19 68 71 84 87 81 87 84 90 90 94 97 100 100 100 97 94 87 84 81
0 0 0 0 0 0 0 0 0 0 0 0 0 0 0 0 0 0 0 0 0 0 6 13 16 29 65 74 87 87 84 84 87 94 100 100 100 100 100 97 87 84 81
0 0 0 0 0 0 0 0 0 0 0 0 0 0 0 0 0 0 0 0 0 0 0 3 6 3 23 48 68 84 84 81 87 90 100 100 100 97 94 100 97 90 87
0 0 0 0 0 0 0 0 0 0 0 0 0 0 0 0 0 0 0 0 0 0 0 0 0 0 3 10 26 61 68 84 87 90 97 100 97 94 94 94 97 94 94
0 0 0 0 0 0 0 0 0 0 0 0 0 0 0 0 0 0 0 0 0 0 0 0 0 0 0 0 3 13 48 68 77 84 97 100 97 94 94 90 97 97 97
0 0 0 0 0 0 0 0 0 0 0 0 0 0 0 0 0 0 0 0 0 0 0 0 0 0 0 0 0 0 6 39 65 74 81 84 90 94 94 94 90 94 94
0 0 0 0 0 0 0 0 0 0 0 0 0 0 0 0 0 0 0 0 0 0 0 0 0 0 0 0 0 0 3 6 26 61 65 74 77 77 90 90 90 90 94
0 0 0 0 0 0 0 0 0 0 0 0 0 0 0 0 0 0 0 0 0 0 0 0 0 0 0 0 0 0 0 3 6 32 42 52 52 65 71 71 77 84 87
0 0 0 0 0 0 0 0 0 0 0 0 0 0 0 0 0 0 0 0 0 0 0 0 0 0 0 0 0 0 0 0 0 10 26 26 29 45 48 52 58 68 68
0 0 0 0 0 0 0 0 0 0 0 0 0 0 0 0 0 0 0 0 0 0 0 0 0 0 0 0 0 0 0 0 0 0 0 6 13 19 32 42 45 58 61
0 0 0 0 0 0 0 0 0 0 0 0 0 0 0 0 0 0 0 0 0 0 0 0 0 0 0 0 0 0 0 0 0 0 0 0 0 3 6 19 29 26 26
0 0 0 0 0 0 0 0 0 0 0 0 0 0 0 0 0 0 0 0 0 0 0 0 0 0 0 0 0 0 0 0 0 0 0 0 0 0 0 3 3 10 13
0 0 0 0 0 0 0 0 0 0 0 0 0 0 0 0 0 0 0 0 0 0 0 0 0 0 0 0 0 0 0 0 0 0 0 0 0 0 0 0 0 0 0
0 0 0 0 0 0 0 0 0 0 0 0 0 0 0 0 0 0 0 0 0 0 0 0 0 0 0 0 0 0 0 0 0 0 0 0 0 0 0 0 0 0 0
0 0 0 0 0 0 0 0 0 0 0 0 0 0 0 0 0 0 0 0 0 0 0 0 0 0 0 0 0 0 0 0 0 0 0 0 0 0 0 0 0 0 0
0 0 0 0 0 0 0 0 0 0 0 0 0 0 0 0 0 0 0 0 0 0 0 0 0 0 0 0 0 0 0 0 0 0 0 0 0 0 0 0 0 0 0
0 0 0 0 0 0 0 0 0 0 0 0 0 0 0 0 0 0 0 0 0 0 0 0 0 0 0 0 0 0 0 0 0 0 0 0 0 0 0 0 0 0 0
0 0 0 0 0 0 0 0 0 0 0 0 0 0 0 0 0 0 0 0 0 0 0 0 0 0 0 0 0 0 0 0 0 0 0 0 0 0 0 0 0 0 0
0 0 0 0 0 0 0 0 0 0 0 0 0 0 0 0 0 0 0 0 0 0 0 0 0 0 0 0 0 0 0 0 0 0 0 0 0 0 0 0 0 0 0
0 0 0 0 0 0 0 0 0 0 0 0 0 0 0 0 0 0 0 0 0 0 0 0 0 0 0 0 0 0 0 0 0 0 0 0 0 0 0 0 0 0 0
0 0 0 0 0 0 0 0 0 0 0 0 0 0 0 0 0 0 0 0 0 0 0 0 0 0 0 0 0 0 0 0 0 0 0 0 0 0 0 0 0 0 0
0 0 0 0 0 0 0 0 0 0 0 0 0 0 0 0 0 0 0 0 0 0 0 0 0 0 0 0 0 0 0 0 0 0 0 0 0 0 0 0 0 0 0
Height
5813 5810 5807 5805 5803 5801 5800 5800 5800 5801 5803 5805 5808 5812 5815 5820 5824 5827 5831 5835 5838 5841 5845 5848 5851 5853 5856 5858 5861 5864 5866 5869 5871 5873 5876 5878 5880 5881 5883 5885 5887 5888 5889
5810 5806 5803 5801 5798 5797 5795 5795 5795 5796 5798 5801 5803 5807 5811 5815 5819 5823 5827 5831 5835 5838 5842 5845 5848 5851 5854 5857 5859 5862 5864 5867 5869 5872 5874 5877 5879 5881 5882 5884 5886 5888 5889
5806 5803 5800 5797 5794 5792 5791 5791 5791 5792 5794 5796 5799 5802 5806 5810 5815 5819 5823 5827 5831 5835 5839 5842 5845 5848 5852 5854 5857 5860 5862 5865 5868 5870 5873 5875 5877 5880 5882 5883 5885 5887 5889
5803 5799 5796 5793 5791 5789 5787 5786 5787 5787 5789 5792 5794 5798 5802 5806 5811 5815 5819 5824 5828 5832 5836 5839 5843 5846 5849 5852 5855 5857 5860 5863 5866 5868 5871 5873 5876 5878 5880 5882 5884 5886 5888
5801 5797 5793 5790 5788 5786 5784 5783 5783 5784 5785 5788 5790 5794 5798 5802 5807 5812 5816 5820 5824 5828 5832 5836 5840 5843 5846 5849 5852 5855 5858 5861 5864 5866 5869 5871 5874 5876 5879 5881 5883 5885 5886
5799 5795 5791 5788 5785 5783 5781 5780 5780 5780 5782 5784 5787 5790 5794 5799 5803 5808 5813 5817 5820 5825 5829 5833 5837 5840 5844 5847 5849 5852 5856 5859 5861 5864 5867 5869 5872 5874 5876 5879 5881 5883 5884
5797 5793 5790 5787 5784 5781 5779 5778 5778 5778 5780 5782 5785 5788 5792 5796 5800 5805 5809 5814 5818 5822 5826 5829 5833 5837 5841 5844 5847 5850 5853 5856 5859 5862 5864 5867 5869 5872 5874 5877 5879 5881 5882
5796 5793 5789 5786 5783 5780 5778 5777 5776 5777 5778 5780 5783 5786 5789 5794 5798 5802 5806 5810 5814 5818 5822 5826 5830 5834 5838 5841 5845 5848 5851 5854 5856 5859 5862 5864 5867 5869 5872 5874 5876 5878 5880
5796 5792 5789 5785 5782 5780 5778 5777 5776 5776 5777 5779 5781 5785 5788 5792 5795 5800 5803 5807 5811 5815 5819 5823 5827 5831 5835 5839 5842 5845 5848 5851 5854 5856 5859 5862 5864 5867 5869 5871 5873 5875 5877
5796 5792 5788 5785 5783 5780 5778 5777 5777 5777 5777 5779 5781 5784 5787 5790 5794 5797 5801 5804 5809 5812 5816 5820 5824 5828 5832 5835 5839 5842 5845 5848 5851 5853 5856 5858 5861 5863 5866 5868 5870 5872 5873
5795 5792 5788 5786 5783 5781 5779 5778 5777 5777 5778 5779 5781 5783 5786 5789 5792 5795 5799 5802 5806 5810 5813 5817 5821 5824 5828 5831 5835 5838 5841 5844 5847 5850 5853 5855 5857 5860 5862 5864 5866 5868 5870
5795 5792 5789 5786 5784 5782 5780 5779 5778 5778 5778 5779 5781 5783 5785 5787 5790 5793 5796 5800 5803 5807 5810 5814 5817 5820 5824 5827 5831 5834 5837 5840 5843 5846 5849 5851 5853 5856 5858 5860 5862 5864 5866
5796 5792 5789 5787 5785 5783 5781 5780 5779 5779 5779 5780 5781 5783 5784 5786 5789 5791 5794 5797 5801 5804 5807 5810 5813 5816 5820 5823 5826 5829 5832 5835 5838 5841 5844 5846 5848 5851 5853 5855 5857 5859 5861
5796 5793 5790 5788 5785 5784 5782 5781 5780 5780 5780 5780 5781 5782 5784 5786 5788 5790 5792 5795 5798 5802 5804 5807 5810 5812 5815 5818 5821 5824 5827 5830 5833 5836 5838 5841 5843 5845 5847 5850 5852 5854 5856
5796 5794 5791 5788 5786 5785 5783 5782 5781 5781 5781 5781 5781 5782 5783 5785 5786 5788 5790 5793 5796 5798 5801 5803 5806 5808 5810 5813 5816 5819 5822 5824 5827 5830 5832 5834 5837 5839 5841 5843 5846 5848 5850
5797 5794 5791 5789 5787 5785 5784 5782 5782 5781 5781 5781 5781 5782 5783 5783 5785 5786 5788 5790 5793 5795 5797 5799 5801 5803 5806 5808 5811 5813 5816 5818 5821 5823 5825 5828 5830 5832 5835 5837 5839 5841 5843
5797 5794 5792 5789 5787 5785 5784 5783 5782 5781 5781 5781 5781 5781 5782 5782 5783 5785 5786 5788 5789 5791 5793 5794 5796 5798 5800 5803 5805 5807 5809 5812 5814 5816 5818 5820 5823 5825 5827 5829 5831 5833 5835
5797 5795 5792 5790 5788 5786 5784 5783 5782 5782 5781 5781 5781 5781 5781 5781 5782 5783 5784 5785 5786 5788 5789 5790 5792 5793 5795 5797 5799 5801 5803 5805 5807 5809 5811 5813 5815 5817 5819 5821 5823 5825 5827
5797 5794 5792 5790 5788 5786 5785 5783 5782 5782 5781 5781 5780 5780 5780 5780 5781 5781 5782 5783 5783 5785 5786 5786 5787 5789 5790 5792 5793 5795 5796 5798 5799 5801 5803 5805 5807 5809 5811 5812 5814 5817 5818
5796 5794 5792 5790 5788 5786 5785 5784 5782 5781 5781 5780 5780 5779 5779 5779 5779 5779 5780 5780 5781 5782 5782 5783 5784 5784 5785 5787 5788 5789 5790 5791 5792 5793 5795 5797 5798 5800 5802 5804 5806 5807 5809
5794 5793 5791 5790 5788 5786 5785 5783 5782 5781 5780 5779 5779 5778 5778 5778 5778 5778 5778 5778 5778 5778 5779 5779 5780 5781 5781 5782 5783 5783 5784 5784 5785 5786 5787 5789 5790 5791 5793 5794 5796 5797 5799
5792 5791 5790 5788 5787 5786 5784 5783 5781 5780 5779 5778 5778 5777 5777 5776 5776 5775 5775 5775 5775 5775 5776 5776 5776 5777 5777 5777 5777 5777 5777 5778 5778 5780 5780 5781 5782 5783 5784 5785 5786 5787 5789
5789 5788 5787 5786 5785 5784 5783 5782 5780 5779 5778 5777 5776 5775 5775 5774 5773 5773 5773 5772 5772 5772 5772 5772 5772 5772 5772 5772 5772 5772 5771 5771 5772 5772 5773 5773 5774 5775 5776 5776 5777 5778 5779
5786 5785 5784 5783 5782 5782 5781 5780 5778 5777 5776 5775 5774 5773 5773 5772 5771 5771 5770 5770 5769 5769 5768 5768 5768 5768 5767 5767 5767 5766 5766 5765 5765 5766 5766 5766 5766 5767 5767 5768 5768 5769 5769
5781 5780 5780 5779 5779 5778 5777 5776 5776 5775 5774 5773 5772 5771 5770 5769 5768 5768 5767 5767 5766 5765 5765 5764 5763 5763 5762 5762 5761 5761 5760 5760 5759 5759 5759 5759 5759 5759 5759 5759 5759 5759 5760
5775 5775 5775 5774 5774 5774 5773 5773 5772 5771 5770 5770 5769 5768 5767 5766 5765 5764 5764 5763 5762 5761 5761 5760 5759 5758 5758 5757 5756 5755 5754 5754 5753 5752 5752 5752 5751 5751 5751 5751 5751 5751 5750
Wind_Speed
20 19 17 16 16 16 16 17 19 21 21 23 25 26 27 27 25 25 23 23 22 20 19 17 16 16 16 16 16 16 16 17 16 16 15 14 14 12 11 11 10 10 9
20 19 17 16 15 14 14 15 16 19 20 21 23 25 27 28 26 25 24 24 22 21 19 19 18 18 17 17 17 17 17 18 17 17 16 15 15 14 13 12 11 10 9
20 19 17 16 14 13 13 14 15 17 20 20 22 25 28 27 26 25 25 25 24 22 20 20 19 19 18 18 18 18 19 18 18 18 17 16 16 15 14 13 12 11 10
20 19 17 15 13 12 11 12 14 16 19 20 21 24 27 28 26 25 25 25 24 23 22 21 20 20 19 19 19 19 19 19 19 18 18 17 17 16 15 14 13 12 12
19 18 16 14 12 10 10 10 12 14 17 18 20 23 25 27 27 26 25 25 25 25 24 23 22 21 20 20 20 20 20 20 19 19 18 18 18 17 17 16 15 13 13
19 17 15 13 12 10 8 8 9 12 15 17 19 21 23 26 26 25 26 25 25 25 24 24 23 22 21 20 19 20 20 20 20 20 19 19 18 18 18 17 16 15 14
18 17 15 13 11 9 8 6 7 9 12 15 17 19 21 23 24 25 25 25 25 25 24 24 24 23 22 21 21 20 20 20 20 20 19 19 19 19 18 18 17 16 16
18 16 16 13 11 9 7 5 3 6 10 12 14 16 20 22 23 24 25 25 25 25 25 25 24 24 23 22 22 21 21 21 21 20 20 20 19 19 19 18 18 18 17
17 16 16 13 10 8 6 3 1 3 7 10 13 16 18 19 21 23 24 24 24 25 25 25 25 25 24 24 23 22 23 22 21 21 21 21 21 20 20 19 19 19 19
17 16 15 13 11 9 6 4 1 2 5 7 11 14 16 18 19 21 22 23 23 24 25 25 25 25 25 24 24 23 23 23 22 22 22 22 21 21 20 20 20 20 20
16 15 14 12 10 8 6 4 2 1 4 6 9 12 14 16 18 20 21 22 23 24 24 24 25 25 26 25 25 25 24 24 24 24 23 22 22 22 22 21 21 21 21
16 15 13 11 10 8 7 5 4 2 4 6 8 10 12 13 15 18 20 21 21 23 24 24 24 25 26 26 26 26 26 26 26 26 25 25 25 24 23 23 23 23 22
15 15 14 11 10 8 7 5 4 3 3 5 7 8 10 11 13 15 18 18 19 20 21 23 24 25 26 26 27 27 27 28 28 28 27 27 27 27 26 25 25 25 25
15 14 13 12 10 8 6 5 4 3 2 3 4 6 8 10 11 14 16 16 18 19 20 21 23 25 26 27 27 27 28 28 28 28 29 29 29 29 29 29 28 28 28
14 13 12 11 10 8 6 5 4 3 1 1 2 4 6 8 9 12 14 16 16 17 19 20 22 23 24 25 26 28 29 29 29 29 30 30 30 30 30 30 30 30 30
13 13 12 11 10 9 7 6 4 3 1 1 2 3 4 6 8 10 11 13 14 16 17 19 21 23 24 25 26 27 29 30 31 31 31 31 32 32 32 32 33 33 33
12 12 12 11 10 9 8 6 5 3 2 1 1 2 3 4 6 9 10 11 13 14 15 17 19 21 23 24 25 27 28 30 31 32 32 32 33 34 34 34 34 35 35
11 12 11 11 10 9 8 6 5 3 2 1 0 1 2 4 5 7 9 10 11 13 14 15 17 19 20 22 23 24 25 27 29 31 32 33 33 34 35 35 35 36 36
10 10 10 10 9 9 7 6 5 4 3 2 1 1 1 3 5 6 8 9 10 11 13 14 15 16 18 20 22 23 24 26 28 29 31 32 33 34 35 36 36 37 37
9 9 9 9 9 9 8 6 5 5 4 3 2 2 2 3 4 5 7 8 10 11 12 13 14 15 17 19 21 22 23 25 27 28 30 31 32 33 34 35 36 37 38
8 8 8 7 8 8 8 7 6 5 4 4 3 3 3 4 4 5 6 8 9 10 11 12 13 15 16 18 19 20 22 23 25 26 28 29 30 31 32 34 36 37 38
9 8 7 7 7 7 7 7 6 5 5 4 4 4 4 5 5 6 7 8 9 10 11 12 13 14 16 17 18 20 21 22 24 25 26 27 28 29 31 32 34 35 36
10 9 8 8 7 7 7 7 6 6 6 5 5 5 5 5 6 7 7 8 9 10 11 12 13 13 15 16 18 19 20 22 23 24 25 26 27 28 29 30 31 34 36
13 11 10 10 9 8 8 7 7 7 7 7 6 6 6 7 7 7 8 8 9 10 11 12 13 14 14 15 17 18 19 21 22 23 24 26 27 28 29 30 31 32 33
16 15 13 12 11 10 9 9 9 8 8 8 8 7 8 8 9 9 9 9 10 11 11 12 13 14 15 16 16 17 18 20 21 22 23 25 27 28 29 30 31 32 34
19 18 16 15 14 12 12 11 10 10 10 10 9 9 9 9 10 10 10 11 11 12 12 13 14 14 15 16 17 17 18 19 20 21 22 24 25 26 28 29 30 32 33
Wind_Direction
327 323 316 306 298 285 273 263 254 243 237 232 231 227 224 225 225 222 221 221 221 219 219 219 217 214 213 211 207 202 200 199 197 195 193 190 188 185 181 180 176 171 167
329 325 320 313 303 289 274 264 254 243 237 232 229 223 220 221 221 219 218 218 217 216 217 218 217 215 213 212 208 206 205 203 202 200 199 197 196 194 190 190 187 182 180
333 328 322 317 309 293 276 264 252 243 236 231 226 220 218 217 217 217 217 216 215 215 216 216 216 213 213 212 210 209 207 205 205 204 204 203 201 200 198 198 197 195 193
337 332 325 321 314 300 281 266 252 242 234 228 223 218 215 215 214 214 213 213 214 215 215 215 214 213 213 212 211 210 208 207 207 207 207 206 205 205 205 205 204 202 201
341 339 330 325 318 305 289 272 252 241 231 226 221 215 212 211 211 212 211 211 212 214 215 214 211 211 212 212 212 212 210 209 210 209 210 209 209 210 210 210 209 208 209
346 345 339 331 325 316 298 278 252 236 227 222 218 214 211 208 208 208 209 209 208 210 212 211 209 209 211 212 211 210 211 211 212 212 211 211 212 213 213 214 214 215 216
349 349 346 340 334 327 315 290 254 232 220 216 213 210 206 204 205 205 207 208 207 207 208 208 207 208 211 212 211 211 214 213 212 213 213 213 213 215 216 218 220 221 222
352 352 352 350 345 339 329 317 259 217 210 210 208 205 201 202 203 205 208 209 209 208 209 207 207 209 211 212 211 212 215 214 213 214 215 214 215 216 217 221 224 225 224
355 355 355 357 357 355 353 348 302 200 199 204 202 200 197 201 203 206 208 211 213 211 210 209 210 210 213 215 215 215 216 216 215 217 216 216 219 220 221 224 227 227 226
357 358 358 0 2 7 13 21 36 180 190 191 196 198 199 202 205 208 212 213 212 211 211 213 212 212 215 217 218 218 219 218 218 219 220 221 223 224 225 227 229 230 229
359 359 1 3 5 11 16 18 29 167 180 182 189 193 198 201 205 210 211 211 212 213 214 214 216 217 219 220 222 222 223 222 221 221 223 225 227 227 228 230 232 232 232
2 3 4 7 8 11 16 19 28 96 160 168 179 187 194 200 205 207 210 211 213 215 217 218 220 222 223 225 224 225 225 225 225 226 229 231 232 231 232 233 234 234 234
3 4 7 8 9 12 18 21 28 68 134 162 177 188 195 200 203 206 208 212 214 216 219 221 223 226 228 230 229 229 229 228 230 232 233 233 234 235 236 236 237 237 237
4 5 6 8 9 13 18 23 31 50 77 140 173 188 195 200 206 209 208 212 215 218 220 222 226 228 229 230 231 231 231 231 233 235 236 236 236 237 238 239 239 240 240
3 6 7 8 8 10 13 15 21 30 55 114 162 192 200 205 207 208 209 212 215 219 222 225 228 228 229 230 232 234 233 235 236 237 238 239 239 238 239 240 240 241 242
4 6 8 9 9 9 9 9 15 24 46 128 180 196 205 213 208 207 210 214 218 222 226 230 232 231 232 235 235 236 237 239 240 240 240 240 239 239 240 241 242 244 244
2 4 6 7 9 10 11 14 19 23 38 66 189 213 218 216 213 213 214 220 223 225 229 233 234 233 234 236 237 238 240 242 243 243 243 242 242 241 242 243 244 245 245
358 360 3 6 7 9 11 13 16 20 24 17 301 241 227 223 220 215 218 224 227 229 233 236 235 235 236 237 239 241 243 244 245 244 245 245 245 245 245 245 245 246 247
351 356 1 4 7 9 9 7 4 3 3 356 329 294 252 236 229 225 225 229 231 232 235 238 239 238 238 240 243 245 248 248 248 247 246 246 247 248 247 247 247 247 248
341 348 354 359 2 5 5 4 0 356 349 336 319 296 278 266 248 242 240 242 242 241 242 244 244 245 247 248 249 251 253 252 251 250 249 249 249 250 248 248 248 249 250
326 332 338 344 350 354 357 357 353 348 343 334 316 298 285 277 267 258 253 252 252 251 251 251 251 251 251 252 254 255 257 255 253 252 252 251 251 251 251 250 251 252 253
306 313 319 324 330 337 341 344 343 337 329 320 313 305 292 282 275 270 264 261 261 259 256 256 256 255 257 258 260 261 262 259 256 255 255 255 254 254 254 254 254 254 255
288 294 300 305 310 315 320 325 328 327 320 311 305 302 298 291 283 279 274 268 266 265 263 263 263 262 262 263 264 264 263 262 258 257 258 259 259 258 258 258 258 258 257
275 279 285 289 292 295 299 305 309 310 310 305 299 297 294 291 287 284 280 277 273 272 269 268 267 266 267 267 267 267 266 265 263 261 261 262 261 261 261 261 261 262 262
266 269 272 276 280 283 286 290 294 297 299 298 296 292 290 289 287 284 284 285 283 280 276 274 273 273 272 272 272 271 270 268 266 265 264 263 264 264 263 262 263 263 263
261 263 265 268 270 273 277 280 284 287 289 290 289 289 289 288 287 287 286 286 286 285 282 279 277 277 276 275 274 274 273 273 272 270 269 267 266 266 267 266 265 265 264